Location: Boitzum
(52.1496°N, 9.6943°E)
Time: 06:51:55
(UTC+00:00)

Cosmos 1758 - Pass Details

Date: 13 January 2026
Orbit: 479 x 500 km, 82.5° (Epoch: 18 February)

Event Time Altitude Azimuth Distance (km) Brightness Sun altitude
Rises 05:48:59 0° 193° (SSW) 2,583 6.8 -14.0°
Reaches altitude 10° 05:51:06 10° 196° (SSW) 1,702 5.8 -13.7°
Maximum altitude 05:54:50 74° 282° (WNW) 524 3.0 -13.1°
Drops below altitude 10° 05:58:33 10° 8° (N) 1,705 5.7 -12.6°
Sets 06:00:41 0° 10° (N) 2,589 6.7 -12.3°
